Time,TemperatureF,DewpointF,PressureIn,WindDirection,WindDirectionDegrees,WindSpeedMPH,WindSpeedGustMPH,Humidity,HourlyPrecipIn,Conditions,Clouds,dailyrainin,SoftwareType,DateUTC
2013-06-22 00:01:00,62.2,54.9,-100.00,SE,144,0.0,0.0,77,0.00,,,0.00,meteohub,2013-06-22 04:01:00,
2013-06-22 00:06:00,62.1,55.0,-100.00,SE,144,0.0,0.0,78,0.00,,,0.00,meteohub,2013-06-22 04:06:00,
2013-06-22 00:11:00,61.9,55.9,-100.00,SE,144,0.0,0.0,81,0.00,,,0.00,meteohub,2013-06-22 04:11:00,
2013-06-22 00:16:00,61.7,56.1,-100.00,SE,144,0.0,0.0,82,0.00,,,0.00,meteohub,2013-06-22 04:16:00,
2013-06-22 00:21:00,61.3,53.8,-100.00,SE,144,0.0,0.0,76,0.00,,,0.00,meteohub,2013-06-22 04:21:00,
2013-06-22 00:27:00,61.9,55.2,-100.00,SE,144,0.0,0.0,79,0.00,,,0.00,meteohub,2013-06-22 04:27:00,
2013-06-22 00:31:00,62.1,56.5,-100.00,SE,144,0.0,0.0,82,0.00,,,0.00,meteohub,2013-06-22 04:31:00,
2013-06-22 00:37:00,62.1,57.2,-100.00,SE,144,0.0,0.0,84,0.00,,,0.00,meteohub,2013-06-22 04:37:00,
2013-06-22 00:42:00,61.9,56.3,-100.00,SE,144,0.0,0.0,82,0.00,,,0.00,meteohub,2013-06-22 04:42:00,
2013-06-22 00:47:00,61.9,55.6,-100.00,SE,144,0.0,0.0,80,0.00,,,0.00,meteohub,2013-06-22 04:47:00,
2013-06-22 00:52:00,61.9,56.3,-100.00,SE,144,0.0,0.0,82,0.00,,,0.00,meteohub,2013-06-22 04:52:00,
2013-06-22 00:57:00,61.9,55.9,-100.00,SE,144,0.0,0.0,81,0.00,,,0.00,meteohub,2013-06-22 04:57:00,
2013-06-22 01:02:00,61.9,56.3,-100.00,SE,144,0.0,0.0,82,0.00,,,0.00,meteohub,2013-06-22 05:02:00,
2013-06-22 01:07:00,61.9,56.7,-100.00,SE,144,0.0,0.0,83,0.00,,,0.00,meteohub,2013-06-22 05:07:00,
2013-06-22 01:12:00,61.5,56.3,-100.00,SE,144,0.0,0.0,83,0.00,,,0.00,meteohub,2013-06-22 05:12:00,
2013-06-22 01:17:00,61.5,55.9,-100.00,SE,144,0.0,0.0,82,0.00,,,0.00,meteohub,2013-06-22 05:17:00,
2013-06-22 01:22:00,61.5,56.3,-100.00,SE,144,0.0,0.0,83,0.00,,,0.00,meteohub,2013-06-22 05:22:00,
2013-06-22 01:27:00,61.3,56.5,-100.00,SE,144,0.0,0.0,84,0.00,,,0.00,meteohub,2013-06-22 05:27:00,
2013-06-22 01:32:00,61.3,56.8,-100.00,SE,144,0.0,0.0,85,0.00,,,0.00,meteohub,2013-06-22 05:32:00,
2013-06-22 01:37:00,61.0,56.1,-100.00,SE,144,0.0,0.0,84,0.00,,,0.00,meteohub,2013-06-22 05:37:00,
2013-06-22 01:42:00,60.8,55.2,-100.00,SE,144,0.0,0.0,82,0.00,,,0.00,meteohub,2013-06-22 05:42:00,
2013-06-22 01:47:00,61.0,54.5,-100.00,SE,144,0.0,0.0,79,0.00,,,0.00,meteohub,2013-06-22 05:47:00,
2013-06-22 01:52:00,61.2,55.2,-100.00,SE,144,0.0,0.0,81,0.00,,,0.00,meteohub,2013-06-22 05:52:00,
2013-06-22 01:57:00,61.5,57.0,-100.00,SE,144,0.0,0.0,85,0.00,,,0.00,meteohub,2013-06-22 05:57:00,
2013-06-22 02:02:00,61.5,57.0,-100.00,SE,144,0.0,0.0,85,0.00,,,0.00,meteohub,2013-06-22 06:02:00,
2013-06-22 02:07:00,61.5,55.2,-100.00,SE,145,0.0,0.0,80,0.00,,,0.00,meteohub,2013-06-22 06:07:00,
2013-06-22 02:12:00,62.4,55.8,-100.00,SE,131,0.0,0.0,79,0.00,,,0.00,meteohub,2013-06-22 06:12:00,
2013-06-22 02:17:00,62.8,55.4,-100.00,SE,131,0.0,1.0,77,0.00,,,0.00,meteohub,2013-06-22 06:17:00,
2013-06-22 02:22:00,63.0,56.3,-100.00,SE,131,0.0,1.0,79,0.00,,,0.00,meteohub,2013-06-22 06:22:00,
2013-06-22 02:27:00,63.1,56.5,-100.00,SSE,147,0.0,1.0,79,0.00,,,0.00,meteohub,2013-06-22 06:27:00,
2013-06-22 02:32:00,63.3,57.0,-100.00,East,80,0.0,2.0,80,0.00,,,0.00,meteohub,2013-06-22 06:32:00,
2013-06-22 02:37:00,63.3,57.7,-100.00,East,86,0.0,2.0,82,0.00,,,0.00,meteohub,2013-06-22 06:37:00,
2013-06-22 02:42:00,63.5,57.2,-100.00,SE,136,1.0,1.0,80,0.00,,,0.00,meteohub,2013-06-22 06:42:00,
2013-06-22 02:47:00,64.9,56.8,-100.00,SSE,148,2.0,3.0,75,0.00,,,0.00,meteohub,2013-06-22 06:47:00,
2013-06-22 02:52:00,66.2,56.8,-100.00,SSE,167,1.0,5.0,72,0.00,,,0.00,meteohub,2013-06-22 06:52:00,
2013-06-22 02:57:00,66.9,57.2,-100.00,SSE,152,2.0,5.0,71,0.00,,,0.00,meteohub,2013-06-22 06:57:00,
2013-06-22 03:02:00,67.3,57.2,-100.00,SSE,153,3.0,5.0,70,0.00,,,0.00,meteohub,2013-06-22 07:02:00,
2013-06-22 03:07:00,67.5,57.4,-100.00,SSW,212,2.0,5.0,70,0.00,,,0.00,meteohub,2013-06-22 07:07:00,
2013-06-22 03:12:00,67.5,57.4,-100.00,SE,145,0.0,5.0,70,0.00,,,0.00,meteohub,2013-06-22 07:12:00,
2013-06-22 03:18:00,67.3,57.6,-100.00,SE,143,2.0,5.0,71,0.00,,,0.00,meteohub,2013-06-22 07:18:00,
2013-06-22 03:23:00,67.1,57.7,-100.00,South,177,1.0,5.0,72,0.00,,,0.00,meteohub,2013-06-22 07:23:00,
2013-06-22 03:28:00,66.9,57.6,-100.00,SE,130,1.0,3.0,72,0.00,,,0.00,meteohub,2013-06-22 07:28:00,
2013-06-22 03:33:00,67.1,57.7,-100.00,South,172,1.0,2.0,72,0.00,,,0.00,meteohub,2013-06-22 07:33:00,
2013-06-22 03:38:00,67.1,57.7,-100.00,SW,214,0.0,5.0,72,0.00,,,0.00,meteohub,2013-06-22 07:38:00,
2013-06-22 03:43:00,66.9,57.9,-100.00,SSE,149,1.0,5.0,73,0.00,,,0.00,meteohub,2013-06-22 07:43:00,
2013-06-22 03:48:00,66.9,57.9,-100.00,SW,224,2.0,4.0,73,0.00,,,0.00,meteohub,2013-06-22 07:48:00,
2013-06-22 03:53:00,66.9,57.9,-100.00,SSW,200,2.0,4.0,73,0.00,,,0.00,meteohub,2013-06-22 07:53:00,
2013-06-22 03:58:00,67.1,58.1,-100.00,South,178,1.0,4.0,73,0.00,,,0.00,meteohub,2013-06-22 07:58:00,
2013-06-22 04:03:00,67.3,58.3,-100.00,SE,139,0.0,4.0,73,0.00,,,0.00,meteohub,2013-06-22 08:03:00,
2013-06-22 04:08:00,67.3,58.3,-100.00,SE,143,2.0,4.0,73,0.00,,,0.00,meteohub,2013-06-22 08:08:00,
2013-06-22 04:13:00,67.3,58.3,-100.00,SSE,148,1.0,4.0,73,0.00,,,0.00,meteohub,2013-06-22 08:13:00,
2013-06-22 04:18:00,67.3,58.3,-100.00,SSW,195,0.0,3.0,73,0.00,,,0.00,meteohub,2013-06-22 08:18:00,
2013-06-22 04:23:00,67.3,58.3,-100.00,SSE,152,1.0,3.0,73,0.00,,,0.00,meteohub,2013-06-22 08:23:00,
2013-06-22 04:28:00,67.1,58.1,-100.00,SSE,147,0.0,3.0,73,0.00,,,0.00,meteohub,2013-06-22 08:28:00,
2013-06-22 04:33:00,66.9,58.3,-100.00,SSE,148,0.0,3.0,74,0.00,,,0.00,meteohub,2013-06-22 08:33:00,
2013-06-22 04:38:00,66.9,58.3,-100.00,SE,132,0.0,3.0,74,0.00,,,0.00,meteohub,2013-06-22 08:38:00,
2013-06-22 04:43:00,66.7,58.1,-100.00,SSE,155,0.0,3.0,74,0.00,,,0.00,meteohub,2013-06-22 08:43:00,
2013-06-22 04:48:00,66.6,58.5,-100.00,SSW,197,1.0,3.0,75,0.00,,,0.00,meteohub,2013-06-22 08:48:00,
2013-06-22 04:53:00,66.6,58.5,-100.00,SSW,193,1.0,2.0,75,0.00,,,0.00,meteohub,2013-06-22 08:53:00,
2013-06-22 04:59:00,66.7,58.6,-100.00,SSW,199,2.0,2.0,75,0.00,,,0.00,meteohub,2013-06-22 08:59:00,
2013-06-22 05:04:00,66.9,58.3,-100.00,South,188,2.0,3.0,74,0.00,,,0.00,meteohub,2013-06-22 09:04:00,
2013-06-22 05:09:00,67.1,58.5,-100.00,SSE,165,3.0,4.0,74,0.00,,,0.00,meteohub,2013-06-22 09:09:00,
2013-06-22 05:14:00,67.3,58.3,-100.00,South,169,0.0,6.0,73,0.00,,,0.00,meteohub,2013-06-22 09:14:00,
2013-06-22 05:19:00,67.5,58.5,-100.00,SW,216,1.0,6.0,73,0.00,,,0.00,meteohub,2013-06-22 09:19:00,
2013-06-22 05:24:00,67.6,58.6,-100.00,SE,143,1.0,6.0,73,0.00,,,0.00,meteohub,2013-06-22 09:24:00,
2013-06-22 05:29:00,67.6,58.3,-100.00,SSE,150,2.0,6.0,72,0.00,,,0.00,meteohub,2013-06-22 09:29:00,
2013-06-22 05:34:00,67.6,58.3,-100.00,SSE,148,2.0,6.0,72,0.00,,,0.00,meteohub,2013-06-22 09:34:00,
2013-06-22 05:39:00,67.8,58.5,-100.00,SSE,153,3.0,7.0,72,0.00,,,0.00,meteohub,2013-06-22 09:39:00,
2013-06-22 05:44:00,67.6,58.6,-100.00,SSE,150,3.0,7.0,73,0.00,,,0.00,meteohub,2013-06-22 09:44:00,
2013-06-22 05:49:00,67.6,58.6,-100.00,SE,131,3.0,7.0,73,0.00,,,0.00,meteohub,2013-06-22 09:49:00,
2013-06-22 05:54:00,67.6,58.6,-100.00,South,181,4.0,7.0,73,0.00,,,0.00,meteohub,2013-06-22 09:54:00,
2013-06-22 05:59:00,67.6,58.6,-100.00,SSW,209,3.0,7.0,73,0.00,,,0.00,meteohub,2013-06-22 09:59:00,
2013-06-22 06:04:00,67.6,58.6,-100.00,SE,141,2.0,7.0,73,0.00,,,0.00,meteohub,2013-06-22 10:04:00,
2013-06-22 06:09:00,67.6,58.6,-100.00,SSE,158,2.0,7.0,73,0.00,,,0.00,meteohub,2013-06-22 10:09:00,
2013-06-22 06:14:00,67.6,58.6,-100.00,SSE,167,4.0,7.0,73,0.00,,,0.00,meteohub,2013-06-22 10:14:00,
2013-06-22 06:19:00,67.8,59.2,-100.00,SW,224,1.0,6.0,74,0.00,,,0.00,meteohub,2013-06-22 10:19:00,
2013-06-22 06:24:00,67.8,58.8,-100.00,SE,143,2.0,6.0,73,0.00,,,0.00,meteohub,2013-06-22 10:24:00,
2013-06-22 06:29:00,68.2,59.2,-100.00,SSE,152,1.0,6.0,73,0.00,,,0.00,meteohub,2013-06-22 10:29:00,
2013-06-22 06:34:00,68.4,59.4,-100.00,South,171,1.0,6.0,73,0.00,,,0.00,meteohub,2013-06-22 10:34:00,
2013-06-22 06:39:00,68.5,59.2,-100.00,SSE,149,1.0,6.0,72,0.00,,,0.00,meteohub,2013-06-22 10:39:00,
2013-06-22 06:44:00,68.9,59.5,-100.00,ESE,111,3.0,6.0,72,0.00,,,0.00,meteohub,2013-06-22 10:44:00,
2013-06-22 06:49:00,69.3,59.5,-100.00,SSE,165,3.0,6.0,71,0.00,,,0.00,meteohub,2013-06-22 10:49:00,
2013-06-22 06:54:00,69.6,59.7,-100.00,SE,134,3.0,6.0,71,0.00,,,0.00,meteohub,2013-06-22 10:54:00,
2013-06-22 06:59:00,70.2,59.9,-100.00,SW,225,2.0,6.0,70,0.00,,,0.00,meteohub,2013-06-22 10:59:00,
2013-06-22 07:04:00,70.5,59.9,-100.00,SSE,156,4.0,6.0,69,0.00,,,0.00,meteohub,2013-06-22 11:04:00,
2013-06-22 07:09:00,71.2,60.6,-100.00,South,187,4.0,6.0,69,0.00,,,0.00,meteohub,2013-06-22 11:09:00,
2013-06-22 07:14:00,71.4,60.3,-100.00,SW,222,2.0,8.0,68,0.00,,,0.00,meteohub,2013-06-22 11:14:00,
2013-06-22 07:19:00,71.8,60.6,-100.00,SE,138,5.0,8.0,68,0.00,,,0.00,meteohub,2013-06-22 11:19:00,
2013-06-22 07:24:00,72.0,60.8,-100.00,SW,226,5.0,6.0,68,0.00,,,0.00,meteohub,2013-06-22 11:24:00,
2013-06-22 07:29:00,72.3,61.2,-100.00,SE,140,3.0,6.0,68,0.00,,,0.00,meteohub,2013-06-22 11:29:00,
2013-06-22 07:34:00,72.7,61.2,-100.00,SW,218,3.0,8.0,67,0.00,,,0.00,meteohub,2013-06-22 11:34:00,
2013-06-22 07:39:00,73.0,61.9,-100.00,SSW,203,1.0,8.0,68,0.00,,,0.00,meteohub,2013-06-22 11:39:00,
2013-06-22 07:44:00,73.6,61.9,-100.00,SSW,195,6.0,8.0,67,0.00,,,0.00,meteohub,2013-06-22 11:44:00,
2013-06-22 07:49:00,73.8,62.1,-100.00,SE,146,3.0,8.0,67,0.00,,,0.00,meteohub,2013-06-22 11:49:00,
2013-06-22 07:54:00,73.8,61.7,-100.00,SW,228,8.0,8.0,66,0.00,,,0.00,meteohub,2013-06-22 11:54:00,
2013-06-22 07:59:00,73.9,62.2,-100.00,SSW,204,4.0,8.0,67,0.00,,,0.00,meteohub,2013-06-22 11:59:00,
2013-06-22 08:04:00,73.9,62.2,-100.00,SE,146,3.0,8.0,67,0.00,,,0.00,meteohub,2013-06-22 12:04:00,
2013-06-22 08:10:00,74.1,63.0,-100.00,SSW,193,4.0,8.0,68,0.00,,,0.00,meteohub,2013-06-22 12:10:00,
2013-06-22 08:15:00,74.5,63.1,-100.00,South,191,4.0,8.0,68,0.00,,,0.00,meteohub,2013-06-22 12:15:00,
2013-06-22 08:20:00,74.5,62.8,-100.00,SSW,192,3.0,8.0,67,0.00,,,0.00,meteohub,2013-06-22 12:20:00,
2013-06-22 08:25:00,74.7,63.0,-100.00,SSW,212,3.0,11.0,67,0.00,,,0.00,meteohub,2013-06-22 12:25:00,
2013-06-22 08:30:00,74.8,63.1,-100.00,South,188,1.0,11.0,67,0.00,,,0.00,meteohub,2013-06-22 12:30:00,
2013-06-22 08:35:00,75.0,63.3,-100.00,WSW,248,4.0,11.0,67,0.00,,,0.00,meteohub,2013-06-22 12:35:00,
2013-06-22 08:40:00,75.7,64.0,-100.00,South,191,3.0,8.0,67,0.00,,,0.00,meteohub,2013-06-22 12:40:00,
2013-06-22 08:45:00,75.9,63.3,-100.00,SSE,155,1.0,8.0,65,0.00,,,0.00,meteohub,2013-06-22 12:45:00,
2013-06-22 08:50:00,76.3,63.7,-100.00,SSW,207,0.0,7.0,65,0.00,,,0.00,meteohub,2013-06-22 12:50:00,
2013-06-22 08:55:00,76.5,63.3,-100.00,South,183,2.0,8.0,64,0.00,,,0.00,meteohub,2013-06-22 12:55:00,
2013-06-22 09:00:00,76.6,63.1,-100.00,South,178,4.0,8.0,63,0.00,,,0.00,meteohub,2013-06-22 13:00:00,
2013-06-22 09:05:00,76.8,63.3,-100.00,SSE,164,5.0,8.0,63,0.00,,,0.00,meteohub,2013-06-22 13:05:00,
2013-06-22 09:10:00,76.8,63.3,-100.00,SSW,199,5.0,8.0,63,0.00,,,0.00,meteohub,2013-06-22 13:10:00,
2013-06-22 09:15:00,77.7,64.0,-100.00,SSW,193,4.0,9.0,63,0.00,,,0.00,meteohub,2013-06-22 13:15:00,
2013-06-22 09:20:00,78.4,64.8,-100.00,SSW,213,5.0,9.0,63,0.00,,,0.00,meteohub,2013-06-22 13:20:00,
2013-06-22 09:25:00,79.0,63.9,-100.00,SSE,155,6.0,10.0,60,0.00,,,0.00,meteohub,2013-06-22 13:25:00,
2013-06-22 09:30:00,79.5,63.5,-100.00,ESE,117,6.0,10.0,58,0.00,,,0.00,meteohub,2013-06-22 13:30:00,
2013-06-22 09:35:00,80.2,64.6,-100.00,WSW,250,3.0,11.0,59,0.00,,,0.00,meteohub,2013-06-22 13:35:00,
2013-06-22 09:40:00,80.8,64.6,-100.00,SSW,206,3.0,11.0,58,0.00,,,0.00,meteohub,2013-06-22 13:40:00,
2013-06-22 09:45:00,80.2,63.7,-100.00,South,191,6.0,11.0,57,0.00,,,0.00,meteohub,2013-06-22 13:45:00,
2013-06-22 09:50:00,79.9,63.3,-100.00,SW,217,6.0,11.0,57,0.00,,,0.00,meteohub,2013-06-22 13:50:00,
2013-06-22 09:55:00,80.1,63.9,-100.00,SSE,161,7.0,11.0,58,0.00,,,0.00,meteohub,2013-06-22 13:55:00,
2013-06-22 10:00:00,81.0,64.8,-100.00,SSW,196,6.0,11.0,58,0.00,,,0.00,meteohub,2013-06-22 14:00:00,
2013-06-22 10:05:00,81.5,64.8,-100.00,South,175,9.0,12.0,57,0.00,,,0.00,meteohub,2013-06-22 14:05:00,
2013-06-22 10:10:00,81.7,64.9,-100.00,WSW,250,8.0,13.0,57,0.00,,,0.00,meteohub,2013-06-22 14:10:00,
2013-06-22 10:15:00,81.9,65.7,-100.00,SW,229,7.0,13.0,58,0.00,,,0.00,meteohub,2013-06-22 14:15:00,
2013-06-22 10:20:00,82.0,65.8,-100.00,SSW,210,4.0,13.0,58,0.00,,,0.00,meteohub,2013-06-22 14:20:00,
2013-06-22 10:25:00,82.2,64.9,-100.00,SSE,161,6.0,12.0,56,0.00,,,0.00,meteohub,2013-06-22 14:25:00,
2013-06-22 10:30:00,82.6,64.8,-100.00,SSW,201,5.0,11.0,55,0.00,,,0.00,meteohub,2013-06-22 14:30:00,
2013-06-22 10:35:00,82.8,66.0,-100.00,South,169,10.0,11.0,57,0.00,,,0.00,meteohub,2013-06-22 14:35:00,
2013-06-22 10:40:00,83.1,65.8,-100.00,SSW,207,5.0,12.0,56,0.00,,,0.00,meteohub,2013-06-22 14:40:00,
2013-06-22 10:45:00,83.5,65.7,-100.00,South,176,4.0,12.0,55,0.00,,,0.00,meteohub,2013-06-22 14:45:00,
2013-06-22 10:50:00,83.7,66.4,-100.00,SW,223,5.0,12.0,56,0.00,,,0.00,meteohub,2013-06-22 14:50:00,
2013-06-22 10:55:00,83.8,65.5,-100.00,SSW,205,7.0,12.0,54,0.00,,,0.00,meteohub,2013-06-22 14:55:00,
2013-06-22 11:00:00,84.0,65.7,-100.00,SSW,193,6.0,14.0,54,0.00,,,0.00,meteohub,2013-06-22 15:00:00,
2013-06-22 11:05:00,84.0,65.7,-100.00,SE,126,4.0,14.0,54,0.00,,,0.00,meteohub,2013-06-22 15:05:00,
2013-06-22 11:10:00,83.8,66.4,-100.00,SW,218,5.0,14.0,56,0.00,,,0.00,meteohub,2013-06-22 15:10:00,
2013-06-22 11:15:00,83.8,66.9,-100.00,SSW,209,3.0,11.0,57,0.00,,,0.00,meteohub,2013-06-22 15:15:00,
2013-06-22 11:21:00,83.7,65.8,-100.00,South,188,4.0,12.0,55,0.00,,,0.00,meteohub,2013-06-22 15:21:00,
2013-06-22 11:26:00,83.5,65.7,-100.00,SSE,153,5.0,12.0,55,0.00,,,0.00,meteohub,2013-06-22 15:26:00,
2013-06-22 11:31:00,83.5,66.6,-100.00,SW,215,8.0,12.0,57,0.00,,,0.00,meteohub,2013-06-22 15:31:00,
2013-06-22 11:36:00,83.5,66.2,-100.00,South,172,6.0,13.0,56,0.00,,,0.00,meteohub,2013-06-22 15:36:00,
2013-06-22 11:41:00,83.3,66.6,-100.00,SW,214,7.0,13.0,57,0.00,,,0.00,meteohub,2013-06-22 15:41:00,
2013-06-22 11:46:00,82.8,66.0,-100.00,SSW,208,4.0,14.0,57,0.00,,,0.00,meteohub,2013-06-22 15:46:00,
2013-06-22 11:51:00,82.8,66.6,-100.00,SSW,196,7.0,14.0,58,0.00,,,0.00,meteohub,2013-06-22 15:51:00,
2013-06-22 11:56:00,82.6,65.8,-100.00,SE,146,4.0,14.0,57,0.00,,,0.00,meteohub,2013-06-22 15:56:00,
2013-06-22 12:01:00,82.2,66.9,-100.00,WSW,250,8.0,13.0,60,0.00,,,0.00,meteohub,2013-06-22 16:01:00,
2013-06-22 12:06:00,82.2,66.9,-100.00,South,169,4.0,13.0,60,0.00,,,0.00,meteohub,2013-06-22 16:06:00,
2013-06-22 12:11:00,82.0,66.4,-100.00,SSE,147,4.0,12.0,59,0.00,,,0.00,meteohub,2013-06-22 16:11:00,
2013-06-22 12:16:00,82.0,66.7,-100.00,SW,214,3.0,14.0,60,0.00,,,0.00,meteohub,2013-06-22 16:16:00,
2013-06-22 12:21:00,81.9,67.1,-100.00,SW,215,6.0,14.0,61,0.00,,,0.00,meteohub,2013-06-22 16:21:00,
2013-06-22 12:26:00,81.7,66.9,-100.00,SSW,210,4.0,14.0,61,0.00,,,0.00,meteohub,2013-06-22 16:26:00,
2013-06-22 12:31:00,81.5,67.3,-100.00,SSW,209,4.0,9.0,62,0.00,,,0.00,meteohub,2013-06-22 16:31:00,
2013-06-22 12:36:00,81.3,67.1,-100.00,SSW,212,7.0,10.0,62,0.00,,,0.00,meteohub,2013-06-22 16:36:00,
2013-06-22 12:41:00,81.3,67.1,-100.00,SW,222,5.0,10.0,62,0.00,,,0.00,meteohub,2013-06-22 16:41:00,
2013-06-22 12:46:00,81.9,67.1,-100.00,SE,125,5.0,11.0,61,0.00,,,0.00,meteohub,2013-06-22 16:46:00,
2013-06-22 12:51:00,82.4,67.1,-100.00,WSW,247,5.0,12.0,60,0.00,,,0.00,meteohub,2013-06-22 16:51:00,
2013-06-22 12:56:00,82.4,67.1,-100.00,SSW,203,6.0,12.0,60,0.00,,,0.00,meteohub,2013-06-22 16:56:00,
2013-06-22 13:01:00,82.6,67.3,-100.00,SSW,202,7.0,15.0,60,0.00,,,0.00,meteohub,2013-06-22 17:01:00,
2013-06-22 13:06:00,82.2,66.9,-100.00,South,189,4.0,15.0,60,0.00,,,0.00,meteohub,2013-06-22 17:06:00,
2013-06-22 13:11:00,82.2,67.8,-100.00,SSE,166,3.0,13.0,62,0.00,,,0.00,meteohub,2013-06-22 17:11:00,
2013-06-22 13:16:00,82.2,67.8,-100.00,SSE,159,4.0,13.0,62,0.00,,,0.00,meteohub,2013-06-22 17:16:00,
2013-06-22 13:21:00,82.6,68.2,-100.00,SW,225,7.0,10.0,62,0.00,,,0.00,meteohub,2013-06-22 17:21:00,
2013-06-22 13:26:00,83.1,68.4,-100.00,SSW,206,5.0,11.0,61,0.00,,,0.00,meteohub,2013-06-22 17:26:00,
2013-06-22 13:31:00,83.7,67.8,-100.00,SE,135,3.0,11.0,59,0.00,,,0.00,meteohub,2013-06-22 17:31:00,
2013-06-22 13:36:00,84.0,68.2,-100.00,South,170,5.0,13.0,59,0.00,,,0.00,meteohub,2013-06-22 17:36:00,
2013-06-22 13:41:00,84.0,67.6,-100.00,SE,142,8.0,13.0,58,0.00,,,0.00,meteohub,2013-06-22 17:41:00,
2013-06-22 13:46:00,83.7,67.3,-100.00,SW,232,4.0,15.0,58,0.00,,,0.00,meteohub,2013-06-22 17:46:00,
2013-06-22 13:51:00,83.7,68.7,-100.00,SW,235,6.0,15.0,61,0.00,,,0.00,meteohub,2013-06-22 17:51:00,
2013-06-22 13:56:00,83.7,67.8,-100.00,SW,229,8.0,15.0,59,0.00,,,0.00,meteohub,2013-06-22 17:56:00,
2013-06-22 14:01:00,83.1,67.3,-100.00,SW,236,3.0,15.0,59,0.00,,,0.00,meteohub,2013-06-22 18:01:00,
2013-06-22 14:06:00,82.9,68.2,-100.00,South,171,11.0,12.0,61,0.00,,,0.00,meteohub,2013-06-22 18:06:00,
2013-06-22 14:11:00,82.9,68.2,-100.00,SW,217,5.0,12.0,61,0.00,,,0.00,meteohub,2013-06-22 18:11:00,
2013-06-22 14:16:00,82.9,69.1,-100.00,SE,139,3.0,11.0,63,0.00,,,0.00,meteohub,2013-06-22 18:16:00,
2013-06-22 14:21:00,82.8,67.5,-100.00,SE,141,6.0,11.0,60,0.00,,,0.00,meteohub,2013-06-22 18:21:00,
2013-06-22 14:26:00,82.6,67.3,-100.00,SW,214,7.0,14.0,60,0.00,,,0.00,meteohub,2013-06-22 18:26:00,
2013-06-22 14:31:00,82.8,68.4,-100.00,SSW,195,4.0,14.0,62,0.00,,,0.00,meteohub,2013-06-22 18:31:00,
2013-06-22 14:36:00,83.7,68.7,-100.00,SW,226,6.0,14.0,61,0.00,,,0.00,meteohub,2013-06-22 18:36:00,
2013-06-22 14:41:00,84.0,68.2,-100.00,SW,215,4.0,11.0,59,0.00,,,0.00,meteohub,2013-06-22 18:41:00,
2013-06-22 14:46:00,84.0,68.2,-100.00,SSW,197,2.0,11.0,59,0.00,,,0.00,meteohub,2013-06-22 18:46:00,
2013-06-22 14:51:00,84.0,68.7,-100.00,SSW,207,4.0,11.0,60,0.00,,,0.00,meteohub,2013-06-22 18:51:00,
2013-06-22 14:56:00,84.4,69.4,-100.00,WSW,254,7.0,9.0,61,0.00,,,0.00,meteohub,2013-06-22 18:56:00,
2013-06-22 15:01:00,84.0,68.7,-100.00,South,188,5.0,10.0,60,0.00,,,0.00,meteohub,2013-06-22 19:01:00,
2013-06-22 15:06:00,83.7,68.7,-100.00,SW,216,4.0,12.0,61,0.00,,,0.00,meteohub,2013-06-22 19:06:00,
2013-06-22 15:11:00,83.7,68.4,-100.00,SSW,195,5.0,12.0,60,0.00,,,0.00,meteohub,2013-06-22 19:11:00,
2013-06-22 15:16:00,84.0,67.6,-100.00,SSW,205,13.0,13.0,58,0.00,,,0.00,meteohub,2013-06-22 19:16:00,
2013-06-22 15:21:00,84.0,68.2,-100.00,SW,220,6.0,13.0,59,0.00,,,0.00,meteohub,2013-06-22 19:21:00,
2013-06-22 15:26:00,84.4,68.5,-100.00,SW,217,4.0,13.0,59,0.00,,,0.00,meteohub,2013-06-22 19:26:00,
2013-06-22 15:31:00,84.6,68.2,-100.00,SW,221,7.0,15.0,58,0.00,,,0.00,meteohub,2013-06-22 19:31:00,
2013-06-22 15:36:00,84.4,68.0,-100.00,South,186,7.0,15.0,58,0.00,,,0.00,meteohub,2013-06-22 19:36:00,
2013-06-22 15:41:00,84.4,68.0,-100.00,SW,218,7.0,12.0,58,0.00,,,0.00,meteohub,2013-06-22 19:41:00,
2013-06-22 15:46:00,84.6,68.7,-100.00,SSW,209,4.0,12.0,59,0.00,,,0.00,meteohub,2013-06-22 19:46:00,
2013-06-22 15:51:00,84.9,68.9,-100.00,SSE,165,7.0,14.0,59,0.00,,,0.00,meteohub,2013-06-22 19:51:00,
2013-06-22 15:56:00,85.3,68.9,-100.00,SSW,207,5.0,14.0,58,0.00,,,0.00,meteohub,2013-06-22 19:56:00,
2013-06-22 16:01:00,85.3,69.3,-100.00,SSE,153,2.0,14.0,59,0.00,,,0.00,meteohub,2013-06-22 20:01:00,
2013-06-22 16:06:00,85.1,69.1,-100.00,South,178,8.0,15.0,59,0.00,,,0.00,meteohub,2013-06-22 20:06:00,
2013-06-22 16:11:00,85.3,70.3,-100.00,SW,233,11.0,15.0,61,0.00,,,0.00,meteohub,2013-06-22 20:11:00,
2013-06-22 16:16:00,85.3,70.7,-100.00,SSE,168,4.0,15.0,62,0.00,,,0.00,meteohub,2013-06-22 20:16:00,
2013-06-22 16:21:00,85.6,70.7,-100.00,SSW,207,3.0,12.0,61,0.00,,,0.00,meteohub,2013-06-22 20:21:00,
2013-06-22 16:27:00,86.0,70.0,-100.00,South,185,6.0,12.0,59,0.00,,,0.00,meteohub,2013-06-22 20:27:00,
2013-06-22 16:32:00,86.0,69.4,-100.00,SW,234,9.0,13.0,58,0.00,,,0.00,meteohub,2013-06-22 20:32:00,
2013-06-22 16:37:00,86.0,70.5,-100.00,WSW,253,6.0,14.0,60,0.00,,,0.00,meteohub,2013-06-22 20:37:00,
2013-06-22 16:42:00,86.0,70.5,-100.00,WSW,240,9.0,14.0,60,0.00,,,0.00,meteohub,2013-06-22 20:42:00,
2013-06-22 16:47:00,86.4,70.3,-100.00,WSW,240,8.0,14.0,59,0.00,,,0.00,meteohub,2013-06-22 20:47:00,
2013-06-22 16:52:00,86.5,70.5,-100.00,SW,230,9.0,14.0,59,0.00,,,0.00,meteohub,2013-06-22 20:52:00,
2013-06-22 16:57:00,86.2,69.1,-100.00,SSE,165,7.0,13.0,57,0.00,,,0.00,meteohub,2013-06-22 20:57:00,
2013-06-22 17:02:00,86.2,70.2,-100.00,West,281,6.0,13.0,59,0.00,,,0.00,meteohub,2013-06-22 21:02:00,
2013-06-22 17:07:00,86.7,69.6,-100.00,SW,228,8.0,13.0,57,0.00,,,0.00,meteohub,2013-06-22 21:07:00,
2013-06-22 17:12:00,87.1,70.0,-100.00,SW,231,7.0,16.0,57,0.00,,,0.00,meteohub,2013-06-22 21:12:00,
2013-06-22 17:17:00,86.7,69.6,-100.00,South,179,3.0,16.0,57,0.00,,,0.00,meteohub,2013-06-22 21:17:00,
2013-06-22 17:22:00,86.2,69.1,-100.00,SSW,199,2.0,16.0,57,0.00,,,0.00,meteohub,2013-06-22 21:22:00,
2013-06-22 17:27:00,86.2,69.6,-100.00,West,266,9.0,13.0,58,0.00,,,0.00,meteohub,2013-06-22 21:27:00,
2013-06-22 17:32:00,86.5,70.5,-100.00,West,266,5.0,13.0,59,0.00,,,0.00,meteohub,2013-06-22 21:32:00,
2013-06-22 17:37:00,86.5,70.0,-100.00,West,266,9.0,14.0,58,0.00,,,0.00,meteohub,2013-06-22 21:37:00,
2013-06-22 17:42:00,86.5,70.0,-100.00,South,187,3.0,14.0,58,0.00,,,0.00,meteohub,2013-06-22 21:42:00,
2013-06-22 17:47:00,86.5,70.0,-100.00,SW,216,4.0,14.0,58,0.00,,,0.00,meteohub,2013-06-22 21:47:00,
2013-06-22 17:52:00,86.4,69.3,-100.00,SW,229,6.0,13.0,57,0.00,,,0.00,meteohub,2013-06-22 21:52:00,
2013-06-22 17:57:00,86.4,70.3,-100.00,SW,236,11.0,14.0,59,0.00,,,0.00,meteohub,2013-06-22 21:57:00,
2013-06-22 18:02:00,86.2,69.6,-100.00,WSW,238,8.0,16.0,58,0.00,,,0.00,meteohub,2013-06-22 22:02:00,
2013-06-22 18:07:00,86.2,70.2,-100.00,WSW,244,5.0,16.0,59,0.00,,,0.00,meteohub,2013-06-22 22:07:00,
2013-06-22 18:12:00,86.2,69.6,-100.00,SSW,210,7.0,16.0,58,0.00,,,0.00,meteohub,2013-06-22 22:12:00,
2013-06-22 18:17:00,86.4,69.8,-100.00,South,172,7.0,17.0,58,0.00,,,0.00,meteohub,2013-06-22 22:17:00,
2013-06-22 18:23:00,86.4,70.3,-100.00,South,185,6.0,17.0,59,0.00,,,0.00,meteohub,2013-06-22 22:23:00,
2013-06-22 18:28:00,86.2,70.2,-100.00,SW,220,4.0,13.0,59,0.00,,,0.00,meteohub,2013-06-22 22:28:00,
2013-06-22 18:33:00,86.2,70.7,-100.00,WSW,251,6.0,13.0,60,0.00,,,0.00,meteohub,2013-06-22 22:33:00,
2013-06-22 18:38:00,85.8,70.3,-100.00,South,174,6.0,12.0,60,0.00,,,0.00,meteohub,2013-06-22 22:38:00,
2013-06-22 18:43:00,85.5,70.0,-100.00,SW,214,3.0,12.0,60,0.00,,,0.00,meteohub,2013-06-22 22:43:00,
2013-06-22 18:48:00,85.3,69.8,-100.00,South,186,6.0,12.0,60,0.00,,,0.00,meteohub,2013-06-22 22:48:00,
2013-06-22 18:53:00,84.9,70.0,-100.00,SW,233,4.0,10.0,61,0.00,,,0.00,meteohub,2013-06-22 22:53:00,
2013-06-22 18:58:00,84.7,69.8,-100.00,WSW,238,3.0,9.0,61,0.00,,,0.00,meteohub,2013-06-22 22:58:00,
2013-06-22 19:03:00,84.7,69.8,-100.00,SSW,204,3.0,9.0,61,0.00,,,0.00,meteohub,2013-06-22 23:03:00,
2013-06-22 19:08:00,84.9,70.0,-100.00,South,179,4.0,9.0,61,0.00,,,0.00,meteohub,2013-06-22 23:08:00,
2013-06-22 19:13:00,84.6,69.6,-100.00,SSE,150,5.0,11.0,61,0.00,,,0.00,meteohub,2013-06-22 23:13:00,
2013-06-22 19:18:00,84.6,70.2,-100.00,SSE,147,4.0,11.0,62,0.00,,,0.00,meteohub,2013-06-22 23:18:00,
2013-06-22 19:23:00,84.4,70.0,-100.00,South,188,1.0,11.0,62,0.00,,,0.00,meteohub,2013-06-22 23:23:00,
2013-06-22 19:28:00,84.2,69.8,-100.00,SW,215,3.0,10.0,62,0.00,,,0.00,meteohub,2013-06-22 23:28:00,
2013-06-22 19:33:00,84.0,69.6,-100.00,SW,220,4.0,9.0,62,0.00,,,0.00,meteohub,2013-06-22 23:33:00,
2013-06-22 19:38:00,84.0,69.6,-100.00,SW,219,8.0,8.0,62,0.00,,,0.00,meteohub,2013-06-22 23:38:00,
2013-06-22 19:43:00,84.0,70.0,-100.00,SW,234,3.0,10.0,63,0.00,,,0.00,meteohub,2013-06-22 23:43:00,
2013-06-22 19:48:00,84.0,69.6,-100.00,WSW,249,3.0,10.0,62,0.00,,,0.00,meteohub,2013-06-22 23:48:00,
2013-06-22 19:53:00,83.8,70.0,-100.00,WSW,245,4.0,10.0,63,0.00,,,0.00,meteohub,2013-06-22 23:53:00,
2013-06-22 19:58:00,84.0,69.6,-100.00,SW,231,3.0,9.0,62,0.00,,,0.00,meteohub,2013-06-22 23:58:00,
2013-06-22 20:03:00,83.8,70.0,-100.00,WSW,250,2.0,9.0,63,0.00,,,0.00,meteohub,2013-06-23 00:03:00,
2013-06-22 20:08:00,83.7,70.2,-100.00,WSW,241,1.0,9.0,64,0.00,,,0.00,meteohub,2013-06-23 00:08:00,
2013-06-22 20:13:00,83.1,70.2,-100.00,WSW,250,3.0,8.0,65,0.00,,,0.00,meteohub,2013-06-23 00:13:00,
2013-06-22 20:18:00,82.9,70.0,-100.00,WSW,243,2.0,6.0,65,0.00,,,0.00,meteohub,2013-06-23 00:18:00,
2013-06-22 20:23:00,82.8,70.2,-100.00,SW,219,2.0,4.0,66,0.00,,,0.00,meteohub,2013-06-23 00:23:00,
2013-06-22 20:28:00,82.6,69.6,-100.00,SSW,202,2.0,5.0,65,0.00,,,0.00,meteohub,2013-06-23 00:28:00,
2013-06-22 20:33:00,82.4,70.0,-100.00,SW,221,3.0,5.0,66,0.00,,,0.00,meteohub,2013-06-23 00:33:00,
2013-06-22 20:38:00,82.2,69.8,-100.00,SW,232,1.0,6.0,66,0.00,,,0.00,meteohub,2013-06-23 00:38:00,
2013-06-22 20:43:00,81.9,69.4,-100.00,SSW,210,3.0,6.0,66,0.00,,,0.00,meteohub,2013-06-23 00:43:00,
2013-06-22 20:48:00,81.7,69.6,-100.00,SW,224,0.0,6.0,67,0.00,,,0.00,meteohub,2013-06-23 00:48:00,
2013-06-22 20:53:00,81.3,69.8,-100.00,SW,236,0.0,4.0,68,0.00,,,0.00,meteohub,2013-06-23 00:53:00,
2013-06-22 20:58:00,81.1,69.6,-100.00,SSW,195,1.0,3.0,68,0.00,,,0.00,meteohub,2013-06-23 00:58:00,
2013-06-22 21:03:00,81.0,69.8,-100.00,SSW,198,3.0,3.0,69,0.00,,,0.00,meteohub,2013-06-23 01:03:00,
2013-06-22 21:09:00,80.8,69.6,-100.00,SW,227,1.0,3.0,69,0.00,,,0.00,meteohub,2013-06-23 01:09:00,
2013-06-22 21:14:00,80.4,69.3,-100.00,SW,231,0.0,3.0,69,0.00,,,0.00,meteohub,2013-06-23 01:14:00,
2013-06-22 21:19:00,80.1,68.9,-100.00,ENE,61,2.0,3.0,69,0.00,,,0.00,meteohub,2013-06-23 01:19:00,
2013-06-22 21:24:00,77.0,66.9,-100.00,NNW,328,0.0,3.0,71,0.00,,,0.00,meteohub,2013-06-23 01:24:00,
2013-06-22 21:29:00,75.6,67.5,-100.00,North,8,1.0,3.0,76,0.00,,,0.00,meteohub,2013-06-23 01:29:00,
2013-06-22 21:34:00,75.0,67.6,-100.00,NNE,22,0.0,3.0,78,0.00,,,0.00,meteohub,2013-06-23 01:34:00,
2013-06-22 21:39:00,74.7,67.3,-100.00,NNE,19,0.0,3.0,78,0.00,,,0.00,meteohub,2013-06-23 01:39:00,
2013-06-22 21:44:00,74.5,67.5,-100.00,East,85,0.0,1.0,79,0.00,,,0.00,meteohub,2013-06-23 01:44:00,
2013-06-22 21:49:00,74.3,67.3,-100.00,NE,51,0.0,1.0,79,0.00,,,0.00,meteohub,2013-06-23 01:49:00,
2013-06-22 21:54:00,74.3,67.3,-100.00,NE,51,0.0,1.0,79,0.00,,,0.00,meteohub,2013-06-23 01:54:00,
2013-06-22 21:59:00,74.1,67.1,-100.00,NW,319,2.0,2.0,79,0.00,,,0.00,meteohub,2013-06-23 01:59:00,
2013-06-22 22:04:00,74.1,67.1,-100.00,NNE,24,4.0,4.0,79,0.00,,,0.00,meteohub,2013-06-23 02:04:00,
2013-06-22 22:09:00,74.1,67.1,-100.00,NW,310,1.0,4.0,79,0.00,,,0.00,meteohub,2013-06-23 02:09:00,
2013-06-22 22:14:00,73.9,67.1,-100.00,NW,318,0.0,4.0,79,0.00,,,0.00,meteohub,2013-06-23 02:14:00,
2013-06-22 22:19:00,73.9,67.1,-100.00,NW,315,0.0,4.0,79,0.00,,,0.00,meteohub,2013-06-23 02:19:00,
2013-06-22 22:24:00,73.6,66.7,-100.00,NNE,33,0.0,4.0,79,0.00,,,0.00,meteohub,2013-06-23 02:24:00,
2013-06-22 22:29:00,72.9,66.0,-100.00,NE,34,0.0,4.0,79,0.00,,,0.00,meteohub,2013-06-23 02:29:00,
2013-06-22 22:34:00,72.5,66.4,-100.00,NE,34,0.0,1.0,81,0.00,,,0.00,meteohub,2013-06-23 02:34:00,
2013-06-22 22:39:00,72.3,66.6,-100.00,NW,318,2.0,2.0,82,0.00,,,0.00,meteohub,2013-06-23 02:39:00,
2013-06-22 22:44:00,72.1,66.4,-100.00,NW,319,0.0,1.0,82,0.00,,,0.00,meteohub,2013-06-23 02:44:00,
2013-06-22 22:49:00,72.3,66.6,-100.00,NW,319,0.0,2.0,82,0.00,,,0.00,meteohub,2013-06-23 02:49:00,
2013-06-22 22:54:00,72.3,66.6,-100.00,NW,316,0.0,2.0,82,0.00,,,0.00,meteohub,2013-06-23 02:54:00,
2013-06-22 22:59:00,72.3,66.9,-100.00,NW,316,0.0,1.0,83,0.00,,,0.00,meteohub,2013-06-23 02:59:00,
2013-06-22 23:04:00,72.3,66.9,-100.00,SE,138,0.0,0.0,83,0.00,,,0.00,meteohub,2013-06-23 03:04:00,
2013-06-22 23:09:00,72.3,67.3,-100.00,South,191,0.0,0.0,84,0.00,,,0.00,meteohub,2013-06-23 03:09:00,
2013-06-22 23:14:00,72.3,67.6,-100.00,SW,230,0.0,3.0,85,0.02,,,0.02,meteohub,2013-06-23 03:14:00,
2013-06-22 23:19:00,72.0,68.2,-100.00,ESE,117,0.0,3.0,88,0.03,,,0.03,meteohub,2013-06-23 03:19:00,
2013-06-22 23:24:00,71.4,68.0,-100.00,NNW,333,1.0,3.0,89,0.04,,,0.04,meteohub,2013-06-23 03:24:00,
2013-06-22 23:29:00,71.1,67.6,-100.00,North,9,0.0,2.0,89,0.04,,,0.04,meteohub,2013-06-23 03:29:00,
2013-06-22 23:34:00,70.5,67.5,-100.00,North,9,0.0,1.0,90,0.04,,,0.04,meteohub,2013-06-23 03:34:00,
2013-06-22 23:40:00,70.5,67.8,-100.00,WNW,299,0.0,1.0,91,0.05,,,0.05,meteohub,2013-06-23 03:40:00,
2013-06-22 23:45:00,70.7,68.2,-100.00,SSW,207,1.0,1.0,92,0.09,,,0.09,meteohub,2013-06-23 03:45:00,
2013-06-22 23:50:00,71.1,68.9,-100.00,South,171,0.0,2.0,93,0.17,,,0.17,meteohub,2013-06-23 03:50:00,
2013-06-22 23:55:00,71.2,69.1,-100.00,SSW,211,0.0,2.0,93,0.17,,,0.17,meteohub,2013-06-23 03:55:00,